Regional Weather Roundup
Issued by NWS

Home | Current Version | Previous Version | Graphics & Text | Print | Product List | Glossary On
Versions: 1 2 3 4 5 6 7 8 9 10 11 12 13 14 15 16 17 18 19 20 21 22 23 24 25 26 27 28 29 30 31 32 33 34 35 36 37 38 39 40 41 42 43 44 45 46 47 48 49 50
000
ASUS43 KMKX 261511
RWRWI

WISCONSIN REGIONAL WEATHER ROUNDUP
NATIONAL WEATHER SERVICE MILWAUKEE/SULLIVAN WI
900 AM CST FRI DEC 26 2014

NOTE: "FAIR" INDICATES FEW OR NO CLOUDS BELOW 12,000 FEET WITH NO
SIGNIFICANT WEATHER AND/OR OBSTRUCTIONS TO VISIBILITY.

WIZ001-002-006>008-014>016-023>028-261600-
NORTHWEST WISCONSIN

CITY           SKY/WX    TMP DP  RH WIND       PRES   REMARKS
SUPERIOR ARPT  CLOUDY    30  25  81 N3        30.05R
ASHLAND        CLOUDY    30  28  92 N9        30.01R WCI  22
HAYWARD        CLOUDY    30  27  88 N7        29.99R WCI  23
SIREN          LGT SNOW  30  29  96 N6        30.01R WCI  24
CUMBERLAND     LGT SNOW  30  28  93 N7        29.96R WCI  23
RICE LAKE      FLURRIES  32  29  90 N7        29.98R WCI  25
CHETEK         LGT SNOW  32  30  94 CALM      29.96R
LADYSMITH      CLOUDY    32  30  93 N5        29.97R WCI  27
EAU CLAIRE     CLOUDY    32  29  88 NE5       29.94R WCI  27
MENOMONIE      CLOUDY    33  31  94 N5        29.95R FOG     WCI  28
NEW RICHMOND   CLOUDY    32  31  97 N9        29.97R FOG     WCI  24
OSCEOLA        FLURRIES  31  31 100 N6        30.01R WCI  26
$$

WIZ003>005-009-010-017-018-261600-
NORTH CENTRAL WISCONSIN

CITY           SKY/WX    TMP DP  RH WIND       PRES   REMARKS
MANITOWISH WTR CLOUDY    28  28 100 CALM      29.94R
ARBOR VITAE    CLOUDY    32  30  94 CALM      29.93R FOG
WOODRUFF       CLOUDY    32  30  94 CALM      29.93R FOG
RHINELANDER    CLOUDY    29  28  96 CALM      29.94R FOG
EAGLE RIVER    CLOUDY    29  29 100 CALM      29.94R FOG
LAND O LAKES   CLOUDY    28  28 100 CALM      29.94R FOG
PHILLIPS       CLOUDY    29  28  94 NE3       29.93R
TOMAHAWK       CLOUDY    30  28  94 CALM      29.94R FOG
MEDFORD        CLOUDY    29  29  98 NE5       29.92R FOG     WCI  24
MERRILL        CLOUDY    30  30 100 CALM      29.94R FOG
$$

WIZ029-030-035-036-043>047-261600-
CENTRAL WISCONSIN

CITY           SKY/WX    TMP DP  RH WIND       PRES   REMARKS
WAUSAU         FOG       29  28  96 E3        29.92R VSB 1/2
MOSINEE        FOG       27  27 100 NE5       29.93R VSB 1/8 WCI  21
MARSHFIELD     MOSUNNY   29  28  96 CALM      29.91R FOG
STEVENS POINT  SUNNY     25  25  99 NE3       29.94R FOG
WAUPACA        FOG       29  28  96 CALM      29.95S VSB 1/4
WAUTOMA        SUNNY     31  31 100 CALM      29.96R FOG
WISC RAPIDS    SUNNY     31  28  89 CALM      29.94S
CAMP DOUGLAS   SUNNY     28  28 100 CALM      29.93R
$$

WIZ011>013-019>022-031-037>040-048>050-261600-
NORTHEAST WISCONSIN

CITY           SKY/WX    TMP DP  RH WIND       PRES   REMARKS
ANTIGO         FOG       29  29 100 CALM      29.94R VSB<1/4
SHAWANO        FOG       29  28  96 CALM      29.97R VSB<1/4
OCONTO         SUNNY     28  28 100 CALM      29.97R
STURGEON BAY   MOSUNNY   36  32  87 S6        29.98R WCI  31
GREEN BAY      SUNNY     34  33  96 CALM      29.97R
MANITOWOC      SUNNY     39  36  89 CALM      29.98R
APPLETON       MOSUNNY   32  32 100 VRB3      29.96R
CLINTONVILLE   FOG       28  28 100 CALM      29.96R VSB<1/4
OSHKOSH        SUNNY     35  32  88 CALM      29.96R
$$

WIZ032>034-041-042-053>061-261600-
SOUTHWEST WISCONSIN

CITY           SKY/WX    TMP DP  RH WIND       PRES   REMARKS
LA CROSSE      SUNNY     31  29  92 CALM      29.93R
SPARTA         SUNNY     27  27  99 CALM      29.93R
VIROQUA        SUNNY     35  34  97 S5        29.91R WCI  31
BOSCOBEL       SUNNY     30  28  92 CALM      29.94R
PRAIRIE DU CHI SUNNY     32  30  92 CALM      29.93R
PLATTEVILLE    SUNNY     36  33  88 CALM      29.95R
$$

WIZ056-057-062-063-064-067-068-261600-
SOUTH CENTRAL WISCONSIN

CITY           SKY/WX    TMP DP  RH WIND       PRES   REMARKS
REEDSBURG      SUNNY     37  33  86 S5        29.93R WCI  33
BARABOO/DELLS  SUNNY     39  32  77 S7        29.93R WCI  34
LONE ROCK      SUNNY     39  32  76 CALM      29.95R
MINERAL POINT  MOSUNNY   36  34  93 S5        29.94R WCI  32
MADISON        PTSUNNY   38  34  85 S5        29.95R WCI  34
MIDDLETON      SUNNY     39  35  84 SW3       29.94S
WATERTOWN      SUNNY     36  35  96 S6        29.96R WCI  32
MONROE         SUNNY     36  34  93 S15       29.95R WCI  26
JANESVILLE     SUNNY     36  34  93 S6        29.97R WCI  31
$$

WIZ051-052-058>065-066-070>072-261600-
SOUTHEAST WISCONSIN

CITY           SKY/WX    TMP DP  RH WIND       PRES   REMARKS
MILWAUKEE      MOSUNNY   40  33  76 SW14      29.99R WCI  32
WAUKESHA       SUNNY     37  34  87 S6        29.99R WCI  33
MILWAUKEE/TIMM SUNNY     37  34  87 SW7       29.98R WCI  32
RACINE         SUNNY     38  33  82 SW10      30.01R WCI  31
BURLINGTON     SUNNY     35  32  90 S6        29.99R WCI  30
KENOSHA        SUNNY     39  33  79 SW14      29.99R WCI  31
FOND DU LAC    SUNNY     39  34  82 SW13      29.95R WCI  31
SHEBOYGAN      SUNNY     36  33  89 S5        29.97R WCI  32
WEST BEND      SUNNY     37  32  81 SW6       29.97R WCI  33
JUNEAU         SUNNY     36  33  91 S7        29.97R WCI  30
$$

LSZ147-162-261600-
LAKE SUPERIOR

STATION/POSITION TIME  TEMP    WIND        PRES    WAVE
                       AIR SEA DIR/SP/G            HT/PER
                 (UTC) (F)     (DEG/KT/KT) (MB)    (FT/S)
DEVILS ISLAND    1500   32      10/ 13/ 14 1017.4R
PORT WING        1400   32      10/ 12/ 13 1016.3S
SAXON HARBOR     1400   32     350/  4/  5 1015.2S
$$

LMZ867-665-643>646-261600-
LAKE MICHIGAN

STATION/POSITION TIME  TEMP    WIND        PRES    WAVE
                       AIR SEA DIR/SP/G            HT/PER
                 (UTC) (F)     (DEG/KT/KT) (MB)    (FT/S)
CHAMBERS ISLAND  1400   33      CALM  /  2 1014.9R
NORTHPORT PIER   1400   35        CALM     1014.6S
SISTER BAY       1413             CALM       N/A
ALGOMA LAKESHORE 1400             CALM       N/A
KEWAUNEE LAKESHO 1400   36     190/  3/  5 1013.6R
SHEBOYGAN LAKESH 1500   40 39  190/  9/ 11 1015.7R
PORT WASHINGTON  1400   40     200/  2/  2 1015.2
MILWAUKEE LAKESH 1400   39     220/ 10/ 12   N/A
KENOSHA   LAKESH 1500   40     230/  7/ 15 1016.3R
$$

TC  - TEMPERATURE IN CELSIUS
VSB - VISIBILITY IN STATUTE MILES
WCI - WIND CHILL INDEX
HX  - HEAT INDEX




USA.gov is the U.S. government's official web portal to all federal, state and local government web resources and services.